sat.trackr.live / text

‹ back to catalog

STARLINK-35930

NORAD 66599 · 2025-270M

PAYLOAD ACTIVE UNKNOWN

§ Identity

Operator
Country
US
Launch date
2025-11-22
Launch site
AFETR
Launch vehicle
Mass (kg)
RCS (m²)

Purposes: comms

External: N2YO · Heavens-Above · Gunter

§ Orbital elements

Epoch: 2026-09-20T01:34:36.405696Z

Period
94.27 min
Inclination
42.9958°
Eccentricity
0.0002509
Mean motion
15.27603915 rev/d
Perigee alt
481.3 km
Apogee alt
484.7 km
Semi-major
6,861.1 km
B*
7.6036e-4
RAAN
38.4022°
Arg perigee
276.1209°
Mean anomaly
83.9357°
Rev number
4,743

§ Raw data

STARLINK-359301 66599U 25270M   26263.06569914  .00020736  00000+0  76036-3 0  99922 66599  42.9958  38.4022 0002509 276.1209  83.9357 15.27603915 47438

JSON: /api/v1/satellites/66599 · /tle

For live sub-satellite position, see the globe view (requires WebGL).

§ Visibility from observer

Set your observer location to see the next 7 days of passes ≥ 10°. The values pass through the URL so the page stays shareable.

No JS? Fill the form by hand. The geolocation button needs JavaScript.